When you browse on this site, cookies collect data to enhance your experience and personalize the content and advertising you see.
Visit our Privacy Policy to learn more. By continuing to use the site, you agree to this use of cookies and data.
  • Em Portugal
  • Lista de países
  • Para 7 dias
  • Temperatura da água
  • Mapas de satélite
  • Mapa do tempo
  • Widgets de tempo
  • user-avatar
    Iniciar Sessão

    Previsão horária em Malanje

    Hoje, 13 Dezembro, Quinta-feira

    Tempo Temperatura Precipitação Vento Pressão Humidade
    00:00 +20°C° 0 mm 1 m/s 666 mmHg 93%
    01:00 +19°C° 0 mm 1 m/s 666 mmHg 93%
    02:00 +19°C° 0 mm 1 m/s 666 mmHg 94%
    03:00 +19°C° 0 mm 1 m/s 666 mmHg 96%
    04:00 +19°C° 0 mm 1 m/s 666 mmHg 97%
    05:00 +17°C° 0 mm 0 m/s 666 mmHg 96%
    06:00 +18°C° 0 mm 0 m/s 667 mmHg 95%
    07:00 +19°C° 0 mm 0 m/s 667 mmHg 94%
    08:00 +20°C° 0 mm 0 m/s 667 mmHg 89%
    09:00 +24°C° 0 mm 1 m/s 668 mmHg 83%
    10:00 +25°C° 0 mm 1 m/s 668 mmHg 78%
    11:00 +26°C° 0.2 mm 1 m/s 667 mmHg 74%
    12:00 +27°C° 0.2 mm 1 m/s 667 mmHg 70%
    13:00 +28°C° 0.2 mm 2 m/s 666 mmHg 67%
    14:00 +28°C° 1.2 mm 1 m/s 666 mmHg 72%
    15:00 +27°C° 1.2 mm 1 m/s 666 mmHg 77%
    16:00 +27°C° 1.2 mm 1 m/s 665 mmHg 82%
    17:00 +25°C° 1.7 mm 1 m/s 665 mmHg 86%
    18:00 +23°C° 1.7 mm 1 m/s 665 mmHg 89%
    19:00 +22°C° 1.7 mm 1 m/s 665 mmHg 93%
    20:00 +21°C° 0 mm 1 m/s 666 mmHg 94%
    21:00 +21°C° 0 mm 1 m/s 666 mmHg 95%
    22:00 +21°C° 0 mm 1 m/s 667 mmHg 95%
    23:00 +21°C° 0.2 mm 1 m/s 667 mmHg 96%

    Amanhã, 14 Dezembro, Sexta-feira

    Tempo Temperatura Precipitação Vento Pressão Humidade
    00:00 +21°C° 0.2 mm 1 m/s 666 mmHg 97%
    01:00 +20°C° 0.2 mm 1 m/s 666 mmHg 98%
    02:00 +20°C° 1.2 mm 1 m/s 666 mmHg 98%
    03:00 +20°C° 1.2 mm 1 m/s 666 mmHg 98%
    04:00 +20°C° 1.2 mm 1 m/s 666 mmHg 98%
    05:00 +20°C° 1.1 mm 1 m/s 667 mmHg 98%
    06:00 +20°C° 1.1 mm 1 m/s 667 mmHg 97%
    07:00 +20°C° 1.1 mm 2 m/s 667 mmHg 96%
    08:00 +20°C° 0.7 mm 2 m/s 668 mmHg 94%
    09:00 +21°C° 0.7 mm 2 m/s 668 mmHg 92%
    10:00 +22°C° 0.7 mm 3 m/s 668 mmHg 90%
    11:00 +24°C° 0.5 mm 2 m/s 668 mmHg 88%
    12:00 +25°C° 0.5 mm 2 m/s 667 mmHg 85%
    13:00 +25°C° 0.5 mm 2 m/s 667 mmHg 83%
    14:00 +25°C° 1.2 mm 2 m/s 666 mmHg 86%
    15:00 +24°C° 1.2 mm 2 m/s 665 mmHg 89%
    16:00 +23°C° 1.2 mm 2 m/s 665 mmHg 93%
    17:00 +21°C° 1 mm 2 m/s 665 mmHg 94%
    18:00 +20°C° 1 mm 2 m/s 666 mmHg 95%
    19:00 +20°C° 1 mm 1 m/s 666 mmHg 96%
    20:00 +20°C° 0.4 mm 1 m/s 667 mmHg 97%
    21:00 +20°C° 0.4 mm 1 m/s 667 mmHg 97%
    22:00 +20°C° 0.4 mm 1 m/s 668 mmHg 98%
    23:00 +20°C° 0.6 mm 1 m/s 667 mmHg 98%

    Depois de amanhã, 15 Dezembro, Sábado

    Tempo Temperatura Precipitação Vento Pressão Humidade
    00:00 +20°C° 0.6 mm 1 m/s 667 mmHg 98%
    01:00 +20°C° 0.6 mm 1 m/s 666 mmHg 99%
    02:00 +19°C° 0.8 mm 2 m/s 666 mmHg 99%
    03:00 +19°C° 0.8 mm 2 m/s 666 mmHg 99%
    04:00 +19°C° 0.8 mm 2 m/s 666 mmHg 99%
    05:00 +19°C° 0.7 mm 2 m/s 666 mmHg 99%
    06:00 +19°C° 0.7 mm 2 m/s 667 mmHg 98%
    07:00 +19°C° 0.7 mm 2 m/s 667 mmHg 98%
    08:00 +20°C° 0.6 mm 1 m/s 667 mmHg 98%
    09:00 +20°C° 0.6 mm 1 m/s 668 mmHg 97%
    10:00 +21°C° 0.6 mm 1 m/s 668 mmHg 97%
    11:00 +21°C° 0.4 mm 1 m/s 667 mmHg 96%
    12:00 +22°C° 0.4 mm 1 m/s 667 mmHg 94%
    13:00 +22°C° 0.4 mm 1 m/s 666 mmHg 93%
    14:00 +22°C° 0.3 mm 1 m/s 666 mmHg 92%
    15:00 +22°C° 0.3 mm 1 m/s 666 mmHg 90%
    16:00 +23°C° 0.3 mm 1 m/s 665 mmHg 89%
    17:00 +22°C° 0.2 mm 1 m/s 666 mmHg 92%
    18:00 +21°C° 0.2 mm 1 m/s 666 mmHg 94%
    19:00 +20°C° 0.2 mm 1 m/s 667 mmHg 97%
    20:00 +18°C° 0.1 mm 0 m/s 667 mmHg 97%
    21:00 +18°C° 0.1 mm 0 m/s 667 mmHg 97%
    22:00 +18°C° 0.1 mm 0 m/s 668 mmHg 98%
    23:00 +18°C° 0.4 mm 0 m/s 667 mmHg 98%

    16 Dezembro, Domingo

    Tempo Temperatura Precipitação Vento Pressão Humidade
    00:00 +18°C° 0.4 mm 0 m/s 667 mmHg 98%
    01:00 +18°C° 0.4 mm 0 m/s 666 mmHg 98%
    02:00 +17°C° 0.4 mm 0 m/s 666 mmHg 97%
    03:00 +17°C° 0.4 mm 0 m/s 666 mmHg 97%
    04:00 +17°C° 0.4 mm 0 m/s 666 mmHg 97%
    05:00 +18°C° 0 mm 0 m/s 666 mmHg 96%
    06:00 +18°C° 0 mm 0 m/s 666 mmHg 95%
    07:00 +18°C° 0 mm 0 m/s 667 mmHg 94%
    08:00 +22°C° 0 mm 1 m/s 667 mmHg 87%
    09:00 +23°C° 0 mm 1 m/s 668 mmHg 80%
    10:00 +25°C° 0 mm 1 m/s 668 mmHg 73%
    11:00 +25°C° 0.2 mm 2 m/s 667 mmHg 72%
    12:00 +26°C° 0.2 mm 2 m/s 667 mmHg 72%
    13:00 +26°C° 0.2 mm 2 m/s 666 mmHg 72%
    14:00 +26°C° 0.3 mm 1 m/s 666 mmHg 74%
    15:00 +25°C° 0.3 mm 1 m/s 666 mmHg 77%
    16:00 +25°C° 0.3 mm 1 m/s 665 mmHg 80%
    17:00 +24°C° 0.1 mm 1 m/s 665 mmHg 83%
    18:00 +22°C° 0.1 mm 1 m/s 666 mmHg 87%
    19:00 +19°C° 0.1 mm 0 m/s 666 mmHg 90%
    20:00 +19°C° 0.2 mm 0 m/s 666 mmHg 91%
    21:00 +18°C° 0.2 mm 0 m/s 666 mmHg 91%
    22:00 +18°C° 0.2 mm 0 m/s 667 mmHg 92%
    23:00 +18°C° 0.3 mm 0 m/s 666 mmHg 93%

    17 Dezembro, Segunda-feira

    Tempo Temperatura Precipitação Vento Pressão Humidade
    00:00 +18°C° 0.3 mm 0 m/s 666 mmHg 94%
    01:00 +18°C° 0.3 mm 0 m/s 665 mmHg 94%
    02:00 +20°C° 0.2 mm 1 m/s 665 mmHg 96%
    03:00 +20°C° 0.2 mm 1 m/s 665 mmHg 97%
    04:00 +19°C° 0.2 mm 1 m/s 665 mmHg 98%
    05:00 +20°C° 0.2 mm 1 m/s 666 mmHg 98%
    06:00 +20°C° 0.2 mm 1 m/s 666 mmHg 97%
    07:00 +20°C° 0.2 mm 1 m/s 667 mmHg 97%
    08:00 +21°C° 0.2 mm 1 m/s 667 mmHg 95%
    09:00 +21°C° 0.2 mm 1 m/s 667 mmHg 94%
    10:00 +22°C° 0.2 mm 1 m/s 667 mmHg 92%
    11:00 +23°C° 0.2 mm 1 m/s 667 mmHg 86%
    12:00 +24°C° 0.2 mm 2 m/s 666 mmHg 80%
    13:00 +25°C° 0.2 mm 2 m/s 666 mmHg 73%
    14:00 +25°C° 0.1 mm 2 m/s 666 mmHg 73%
    15:00 +26°C° 0.1 mm 2 m/s 665 mmHg 72%
    16:00 +26°C° 0.1 mm 2 m/s 665 mmHg 71%
    17:00 +24°C° 0.1 mm 2 m/s 665 mmHg 77%
    18:00 +22°C° 0.1 mm 1 m/s 665 mmHg 84%
    19:00 +21°C° 0.1 mm 1 m/s 665 mmHg 90%
    20:00 +20°C° 0 mm 1 m/s 665 mmHg 91%
    21:00 +20°C° 0 mm 1 m/s 666 mmHg 92%
    22:00 +19°C° 0 mm 1 m/s 666 mmHg 93%
    23:00 +19°C° 0 mm 1 m/s 665 mmHg 93%

    18 Dezembro, Terça-feira

    Tempo Temperatura Precipitação Vento Pressão Humidade
    00:00 +19°C° 0 mm 1 m/s 665 mmHg 93%
    01:00 +18°C° 0 mm 1 m/s 665 mmHg 93%
    02:00 +18°C° 0 mm 1 m/s 665 mmHg 94%
    03:00 +18°C° 0 mm 1 m/s 665 mmHg 95%
    04:00 +18°C° 0 mm 1 m/s 665 mmHg 96%
    05:00 +18°C° 0 mm 1 m/s 665 mmHg 94%
    06:00 +19°C° 0 mm 1 m/s 666 mmHg 93%
    07:00 +20°C° 0 mm 1 m/s 666 mmHg 91%
    08:00 +22°C° 0 mm 1 m/s 667 mmHg 82%
    09:00 +24°C° 0 mm 1 m/s 667 mmHg 73%
    10:00 +26°C° 0 mm 2 m/s 667 mmHg 64%
    11:00 +27°C° 0 mm 2 m/s 667 mmHg 61%
    12:00 +28°C° 0 mm 3 m/s 666 mmHg 58%
    13:00 +29°C° 0 mm 3 m/s 665 mmHg 55%
    14:00 +28°C° 0 mm 3 m/s 665 mmHg 59%
    15:00 +28°C° 0 mm 3 m/s 665 mmHg 63%
    16:00 +28°C° 0 mm 3 m/s 664 mmHg 67%
    17:00 +26°C° 0.1 mm 2 m/s 664 mmHg 73%
    18:00 +24°C° 0.1 mm 2 m/s 664 mmHg 80%
    19:00 +22°C° 0.1 mm 1 m/s 664 mmHg 86%
    20:00 +21°C° 0 mm 1 m/s 665 mmHg 88%
    21:00 +21°C° 0 mm 1 m/s 665 mmHg 89%
    22:00 +20°C° 0 mm 1 m/s 665 mmHg 90%
    23:00 +19°C° 0.1 mm 2 m/s 665 mmHg 91%
    Mostrar mais